TimeAKDT,TemperatureF,Dew PointF,Humidity,Sea Level PressureIn,VisibilityMPH,Wind Direction,Wind SpeedMPH,Gust SpeedMPH,PrecipitationIn,Events,Conditions,WindDirDegrees,DateUTC
12:16 AM,37.4,30.2,75,30.12,10.0,SSE,9.2,-,N/A,,Clear,150,2012-10-06 08:16:00
12:36 AM,37.4,30.2,75,30.12,10.0,SSE,9.2,-,N/A,,Clear,160,2012-10-06 08:36:00
12:56 AM,37.4,30.2,75,30.12,10.0,SSE,9.2,-,N/A,,Clear,150,2012-10-06 08:56:00
1:36 AM,37.4,30.2,75,30.13,10.0,SSE,9.2,-,N/A,,Clear,150,2012-10-06 09:36:00
1:56 AM,39.2,30.2,70,30.13,10.0,SSE,10.4,-,N/A,,Scattered Clouds,160,2012-10-06 09:56:00
2:16 AM,39.2,30.2,70,30.13,10.0,SSE,6.9,-,N/A,,Mostly Cloudy,160,2012-10-06 10:16:00
2:36 AM,41.0,32.0,70,30.14,10.0,SSE,8.1,-,N/A,,Overcast,160,2012-10-06 10:36:00
2:56 AM,41.0,32.0,70,30.14,10.0,SSE,9.2,-,N/A,,Overcast,160,2012-10-06 10:56:00
3:16 AM,42.8,32.0,66,30.14,10.0,SSE,8.1,-,N/A,,Overcast,150,2012-10-06 11:16:00
3:56 AM,39.2,30.2,70,30.14,10.0,SSE,6.9,-,N/A,,Overcast,150,2012-10-06 11:56:00
4:16 AM,37.4,30.2,75,30.13,10.0,SE,5.8,-,N/A,,Overcast,140,2012-10-06 12:16:00
4:36 AM,35.6,28.4,75,30.13,10.0,ESE,5.8,-,N/A,,Scattered Clouds,120,2012-10-06 12:36:00
4:56 AM,35.6,30.2,81,30.13,10.0,Calm,Calm,-,N/A,,Clear,0,2012-10-06 12:56:00
5:16 AM,37.4,30.2,75,30.14,10.0,SSE,4.6,-,N/A,,Clear,150,2012-10-06 13:16:00
5:36 AM,37.4,28.4,70,30.14,10.0,SSE,4.6,-,N/A,,Clear,150,2012-10-06 13:36:00
5:56 AM,33.8,26.6,75,30.14,10.0,SE,3.5,-,N/A,,Clear,140,2012-10-06 13:56:00
6:16 AM,35.6,28.4,75,30.15,10.0,SSE,4.6,-,N/A,,Clear,150,2012-10-06 14:16:00
6:36 AM,35.6,28.4,75,30.15,10.0,SE,5.8,-,N/A,,Clear,140,2012-10-06 14:36:00
6:56 AM,35.6,28.4,75,30.16,10.0,SE,5.8,-,N/A,,Clear,130,2012-10-06 14:56:00
7:16 AM,35.6,28.4,75,30.16,10.0,SSE,6.9,-,N/A,,Clear,150,2012-10-06 15:16:00
7:36 AM,35.6,28.4,75,30.16,10.0,SE,6.9,-,N/A,,Clear,140,2012-10-06 15:36:00
7:56 AM,35.6,28.4,75,30.16,10.0,SE,6.9,-,N/A,,Clear,130,2012-10-06 15:56:00
8:16 AM,35.6,28.4,75,30.16,10.0,ESE,6.9,-,N/A,,Clear,120,2012-10-06 16:16:00
8:36 AM,37.4,30.2,75,30.16,10.0,SE,8.1,-,N/A,,Clear,140,2012-10-06 16:36:00
8:56 AM,37.4,30.2,75,30.15,10.0,SE,9.2,-,N/A,,Clear,130,2012-10-06 16:56:00
9:16 AM,37.4,30.2,75,30.15,10.0,SSE,9.2,-,N/A,,Clear,150,2012-10-06 17:16:00
9:36 AM,39.2,33.8,81,30.15,10.0,SSE,9.2,-,N/A,,Clear,160,2012-10-06 17:36:00
9:56 AM,41.0,35.6,81,30.15,10.0,SSE,10.4,-,N/A,,Clear,150,2012-10-06 17:56:00
10:16 AM,44.6,35.6,71,30.15,10.0,SSE,12.7,-,N/A,,Clear,150,2012-10-06 18:16:00
10:36 AM,44.6,37.4,76,30.16,10.0,SSE,13.8,-,N/A,,Clear,150,2012-10-06 18:36:00
10:56 AM,46.4,37.4,71,30.17,10.0,SSE,10.4,-,N/A,,Clear,150,2012-10-06 18:56:00
11:16 AM,46.4,37.4,71,30.18,10.0,SE,11.5,-,N/A,,Scattered Clouds,140,2012-10-06 19:16:00
11:36 AM,48.2,37.4,66,30.18,10.0,SSE,16.1,-,N/A,,Overcast,150,2012-10-06 19:36:00
11:56 AM,48.2,35.6,62,30.18,10.0,SE,13.8,-,N/A,,Mostly Cloudy,140,2012-10-06 19:56:00
12:16 PM,48.2,35.6,62,30.18,10.0,SE,13.8,-,N/A,,Clear,140,2012-10-06 20:16:00
12:36 PM,48.2,35.6,62,30.18,10.0,SE,13.8,-,N/A,,Clear,130,2012-10-06 20:36:00
12:56 PM,48.2,35.6,62,30.18,10.0,SE,17.3,-,N/A,,Clear,140,2012-10-06 20:56:00
1:16 PM,48.2,33.8,58,30.17,10.0,SE,16.1,-,N/A,,Clear,130,2012-10-06 21:16:00
1:36 PM,51.8,33.8,50,30.17,10.0,SE,19.6,-,N/A,,Clear,140,2012-10-06 21:36:00
1:56 PM,51.8,32.0,47,30.16,10.0,SE,17.3,23.0,N/A,,Clear,130,2012-10-06 21:56:00
2:16 PM,51.8,32.0,47,30.15,10.0,SE,19.6,23.0,N/A,,Clear,130,2012-10-06 22:16:00
2:36 PM,51.8,35.6,54,30.12,10.0,SE,20.7,27.6,N/A,,Clear,130,2012-10-06 22:36:00
2:56 PM,51.8,35.6,54,30.12,10.0,ESE,18.4,-,N/A,,Clear,120,2012-10-06 22:56:00
3:16 PM,53.6,37.4,54,30.11,10.0,SE,20.7,-,N/A,,Clear,130,2012-10-06 23:16:00
3:36 PM,53.6,37.4,54,30.10,10.0,SE,16.1,25.3,N/A,,Clear,130,2012-10-06 23:36:00
3:56 PM,51.8,39.2,62,30.09,10.0,SE,18.4,21.9,N/A,,Clear,130,2012-10-06 23:56:00
4:16 PM,51.8,39.2,62,30.08,10.0,SE,19.6,25.3,N/A,,Scattered Clouds,140,2012-10-07 00:16:00
4:36 PM,50.0,39.2,66,30.08,10.0,SE,16.1,-,N/A,,Overcast,140,2012-10-07 00:36:00
4:56 PM,50.0,39.2,66,30.07,10.0,SSE,15.0,-,N/A,,Overcast,150,2012-10-07 00:56:00
5:16 PM,48.2,39.2,71,30.06,10.0,SE,15.0,-,N/A,,Overcast,140,2012-10-07 01:16:00
5:36 PM,48.2,42.8,82,30.06,10.0,SE,12.7,-,N/A,,Overcast,140,2012-10-07 01:36:00
5:56 PM,46.4,42.8,87,30.06,10.0,SE,5.8,-,N/A,,Overcast,140,2012-10-07 01:56:00
6:16 PM,48.2,42.8,82,30.06,6.0,ESE,4.6,-,0.01,,Overcast,120,2012-10-07 02:16:00
6:36 PM,48.2,42.8,82,30.05,7.0,ESE,11.5,-,0.02,,Overcast,120,2012-10-07 02:36:00
6:56 PM,46.4,41.0,81,30.03,3.0,East,12.7,-,0.03,,Overcast,80,2012-10-07 02:56:00
7:16 PM,46.4,42.8,87,30.01,5.0,East,9.2,-,N/A,,Overcast,80,2012-10-07 03:16:00
7:36 PM,46.4,42.8,87,30.00,5.0,SE,6.9,-,0.02,,Overcast,130,2012-10-07 03:36:00
7:56 PM,46.4,42.8,87,29.99,8.0,ENE,8.1,-,0.03,,Overcast,70,2012-10-07 03:56:00
8:16 PM,48.2,42.8,82,29.99,10.0,ESE,6.9,-,0.02,,Mostly Cloudy,110,2012-10-07 04:16:00
8:36 PM,48.2,42.8,82,29.99,6.0,East,3.5,-,0.07,,Overcast,100,2012-10-07 04:36:00
8:56 PM,46.4,42.8,87,29.98,10.0,West,5.8,-,0.08,,Overcast,270,2012-10-07 04:56:00
9:16 PM,46.4,42.8,87,29.98,10.0,WNW,5.8,-,0.04,,Overcast,290,2012-10-07 05:16:00
9:36 PM,48.2,42.8,82,29.96,10.0,Calm,Calm,-,0.04,,Overcast,0,2012-10-07 05:36:00
9:56 PM,48.2,42.8,82,29.95,10.0,North,4.6,-,0.04,,Overcast,360,2012-10-07 05:56:00
10:16 PM,48.2,44.6,87,29.95,10.0,Calm,Calm,-,N/A,,Overcast,0,2012-10-07 06:16:00
10:36 PM,50.0,44.6,82,29.95,10.0,Calm,Calm,-,N/A,,Overcast,0,2012-10-07 06:36:00
10:56 PM,51.8,44.6,76,29.94,10.0,East,6.9,-,0.04,,Mostly Cloudy,90,2012-10-07 06:56:00
11:16 PM,51.8,46.4,82,29.93,10.0,SE,11.5,-,N/A,,Overcast,130,2012-10-07 07:16:00
11:36 PM,51.8,46.4,82,29.92,10.0,SE,16.1,21.9,0.01,,Overcast,140,2012-10-07 07:36:00
11:56 PM,51.8,46.4,82,29.91,10.0,SE,19.6,27.6,0.01,,Overcast,140,2012-10-07 07:56:00